Hourly Data Report for October 31, 2018

VICTORIA UNIVERSITY CS
BRITISH COLUMBIA
Current Station Operator: ECCC - MSC

48°27'25.200" N
123°18'16.600" W
60.10 m
1018598
71783
WYJ

Download Data

Hourly Data (October 2018)
Hourly Data Report for October 31, 2018
TIME
LST
Temp Definition
°C
Dew Point Definition
°C
Rel Hum Definition
%
Precip. Amount Definition
mm

Wind Dir Definition
10's deg

Wind Spd Definition
km/h
Visibility Definition
km
Stn Press Definition
kPa
Hmdx Definition


Wind Chill Definition


Weather Definition


00:00 9.2 8.5 95 0.0 11 2   100.94     LegendNANA
01:00 9.2 8.6 97 0.0 36 4   100.90     LegendNANA
02:00 9.3 8.8 97 0.0 0 1   100.85     LegendNANA
03:00 9.1 8.6 97 0.0 5 1   100.84     LegendNANA
04:00 9.1 8.6 97 0.0 0 1   100.85     LegendNANA
05:00 9.1 8.7 97 0.0 8 1   100.85     LegendNANA
06:00 9.1 8.7 97 0.0   0   100.83     LegendNANA
07:00 9.1 8.7 97 0.0 12 1   100.83     LegendNANA
08:00 9.3 8.9 98 0.0 15 3   100.89     LegendNANA
09:00 9.4 9.0 97 0.0 15 5   100.89     LegendNANA
10:00 9.8 9.4 98 0.0 16 7   100.91     LegendNANA
11:00 9.9 9.4 97 0.0 16 5   100.96     LegendNANA
12:00 10.7 9.2 90 0.0 17 8   100.95     LegendNANA
13:00 11.6 10.1 91 0.0 16 6   100.97     LegendNANA
14:00 12.2 10.8 91 0.0 17 8   100.95     LegendNANA
15:00 14.1 12.1 88 0.0 25 8   100.95     LegendNANA
16:00 13.8 12.0 89 0.0 26 7   101.00     LegendNANA
17:00 13.5 11.9 90 0.0 26 6   101.01     LegendNANA
18:00 13.5 11.8 89 0.0 25 5   101.06     LegendNANA
19:00 12.0 10.3 90 0.0 33 4   101.12     LegendNANA
20:00 10.8 10.1 95 0.0 35 7   101.14     LegendNANA
21:00 10.7 10.1 96 0.0 35 8   101.19     LegendNANA
22:00 10.5 10.1 97 0.2 35 7   101.22     LegendNANA
23:00 10.4 10.0 98 0.2 0 1   101.24     LegendNANA

Notes on Data Quality.

Legend

  • E = Estimated
  • M = Missing
  • NA = Not Available*
  • [empty] = Indicates an unobserved value
Date modified: